Regional Weather Roundup
Issued by NWS Sterling, VA

Home | Current Version | Previous Version | Text Only | Print | Product List | Glossary Off
Versions: 1 2 3 4 5 6 7 8 9 10 11 12 13 14 15 16 17 18 19 20 21 22 23 24 25 26 27

000
ASUS41 KLWX 212311
RWRLWX

REGIONAL WEATHER ROUNDUP
NATIONAL WEATHER SERVICE BALTIMORE MD/WASHINGTON DC
700 PM EDT MON AUG 21 2017

Note: "FAIR" indicates few or no clouds below 12,000 feet
with no significant weather and/or obstructions to visibility.
 TC=TEMPERATURE CELSIUS

 * =Non NWS site. Station does not report precipitation (e.g. rain,
    snow, etc.), thunder, or fog.

DCZ001-MDZ009-015-VAZ040>042-051-053>054-220000-
WASHINGTON METRO

CITY           SKY/WX    TMP DP  RH WIND       PRES   REMARKS
WASHINGTON NAT CLOUDY    80  74  81 S13       30.12R
DULLES         MOCLDY    82  74  76 S9        30.12R
ANDREWS AFB    CLOUDY    78  69  74 S9        30.12R
FT BELVOIR     CLOUDY    77  71  81 S7        30.12S
QUANTICO       CLOUDY    78  76  93 SE14      30.14S THUNDER
COLLEGE PARK*  CLOUDY    83  69  62 S5        30.11R
LEESBURG*      CLEAR     86  72  62 S13G18    30.12R HX  92
MANASSAS*      CLOUDY    79  74  84 S6        30.13R
GAITHERSBURG*  CLOUDY    84  72  67 S7        30.13S

$$

MDZ006>007-011-014-220000-
BALTIMORE METRO

CITY           SKY/WX    TMP DP  RH WIND       PRES   REMARKS
BWI AIRPORT    TSTM      76  72  87 SE13      30.12S
MD SCIENCE CTR   N/A     77  71  82 MISG      30.12S
MARTIN STATE   MOCLDY    79  75  89 S8G17     30.12S
ANNAPOLIS      LGT RAIN  79  78  97 NE6       30.12R FOG
FORT MEADE*    MOCLDY    77  68  73 E8        30.15R

$$

MDZ012-015-019>023-220000-
MARYLAND EASTERN SHORE

CITY           SKY/WX    TMP DP  RH WIND       PRES   REMARKS
OCEAN CITY     MOCLDY    79  74  84 SW9       30.16S
SALISBURY      CLOUDY    80  75  84 SE3       30.14S
BAY BRIDGE AP* MOCLDY    82  75  78 S10       30.12S
CAMBRIDGE*     CLEAR     81  75  83 S7        30.12S

$$

MDZ017>025-220000-
SOUTHERN MARYLAND

CITY           SKY/WX    TMP DP  RH WIND       PRES   REMARKS
PATUXENT RIVER CLOUDY    79  75  87 S6        30.12F
ST INIGOES     CLOUDY    82  75  79 SE6       30.12S
LEONARDTOWN*   CLOUDY    77  73  88 SE3       30.14S

$$

MDZ003>005-220000-
NORTH CENTRAL MARYLAND

CITY           SKY/WX    TMP DP  RH WIND       PRES   REMARKS
FREDERICK*     PTCLDY    88  73  62 S5        30.12S HX  96
HAGERSTOWN APT MOSUNNY   87  72  60 S7        30.10S HX  93
WESTMINSTER*   MOCLDY    88  75  66 SE7       30.12F HX  97

$$

MDZ501>502-220000-
WESTERN MARYLAND

CITY           SKY/WX    TMP DP  RH WIND       PRES   REMARKS
OAKLAND*       SUNNY     73  63  68 SW3       30.22S
CUMBERLAND*    SUNNY     88  68  51 CALM      30.14F HX  91

$$

VAZ025>031-220000-
SHENANDOAH VALLEY

CITY           SKY/WX    TMP DP  RH WIND       PRES   REMARKS
WINCHESTER*    SUNNY     82  68  61 S5        30.12R
FRONT ROYAL*   SUNNY     82  70  65 CALM      30.11S
LURAY*         SUNNY     81  72  74 CALM      30.13S
NEW MARKET*    SUNNY     81  73  78 CALM      30.11S
STAUNTON*      SUNNY     85  67  55 W5        30.16S
WAYNESBORO*    CLOUDY    86  67  52 SW5       30.16S

$$

WVZ021-048>050-054>055-220000-
EASTERN WEST VIRGINIA PANHANDLE

CITY           SKY/WX    TMP DP  RH WIND       PRES   REMARKS
MARTINSBURG    SUNNY     86  73  65 S3        30.09F HX  93
PETERSBURG*    MOSUNNY   83  74  74 W5        30.14S

$$

VAZ036>039-050-220000-
CENTRAL FOOTHILLS

CITY           SKY/WX    TMP DP  RH WIND       PRES   REMARKS
CHARLOTTESVILL SUNNY     88  74  63 S7        30.12R HX  96
CULPEPER*      CLOUDY    80  70  71 S12       30.14R
ORANGE*        CLOUDY    79  68  69 E6        30.14R
GORDONSVILLE*  MOSUNNY   82  74  77 S6        30.12R
WARRENTON*     CLOUDY    78  66  66 SW6       30.13R

$$

VAZ055>057-220000-
NORTH AND CENTRAL PIEDMONT

CITY           SKY/WX    TMP DP  RH WIND       PRES   REMARKS
FREDERICKSBRG* MOCLDY    83  73  71 NW5       30.13R
STAFFORD*      LGT RAIN  75  75 100 NW5       30.17S

$$

NCZ024-NYZ072-PAZ021-071-VAZ022-071-220000-
OTHER REGIONAL OBSERVATIONS

CITY           SKY/WX    TMP DP  RH WIND       PRES   REMARKS
NEW YORK CITY  PTCLDY    81  67  62 VRB6      30.12F
PHILADELPHIA   CLOUDY    83  70  64 S7        30.12S
PITTSBURGH     CLOUDY    83  72  69 SW8       30.11F
ROANOKE        PTSUNNY   84  70  62 E12       30.18S
RICHMOND       PTCLDY    83  73  72 S8        30.12F
RALEIGH        MOSUNNY   88  69  53 S7        30.16R HX  92

$$

ANZ530>537-220000-
MARINE OBSERVATIONS

STATION/POSITION TIME  TEMP    WIND        PRES
                       AIR SEA DIR/SP/G
                 (UTC) (F)     (DEG/KT/KT) (MB)
THOMAS PT LIGHT  2300   81 81  200/ 15/ 17   N/A
BALT KEY BRIDGE  2242   77     210/ 10/ 13 1019.2F
COVE POINT       2242   81     200/ 12/ 16 1020.4F
LEWISETTA        2242   83 85  180/  7/  9 1019.7F
SOLOMONS ISLAND  2242   81 83  160/  7/  8   N/A
PINEY POINT      2236          170/  9/ 10   N/A

$$





USA.gov is the U.S. government's official web portal to all federal, state and local government web resources and services.